CW8733 Weather Reports


Display with metric or nautical units.
time (UTC)temp
F
wind
direction
speed
MPH
gust
MPH
rain 1hr
in
rain 24hr
in
rain mn
in
humidity
%
barometer
mb
20260503200035 86 203 5.0 8.0 0.00 0.00 0.00 22 1013.2
20260503195015 86 203 7.0 14.0 0.00 0.00 0.00 21 1013.4
20260503194015 86 135 7.0 12.0 0.00 0.00 0.00 21 1013.4
20260503193015 85 180 4.0 11.0 0.00 0.00 0.00 22 1013.4
20260503192015 85 225 3.0 8.0 0.00 0.00 0.00 25 1013.4
20260503191015 84 0.0 2.0 0.00 0.00 0.00 27 1013.7
20260503190015 83 0 2.0 4.0 0.00 0.00 0.00 27 1013.9
20260503185016 83 248 1.0 5.0 0.00 0.00 0.00 28 1014.2
20260503184035 83 270 3.0 7.0 0.00 0.00 0.00 28 1014.3
20260503183016 83 225 1.0 5.0 0.00 0.00 0.00 28 1014.5
20260503182035 83 225 1.0 4.0 0.00 0.00 0.00 28 1014.6
20260503181016 83 248 1.0 3.0 0.00 0.00 0.00 28 1014.8
20260503180015 82 0.0 1.0 0.00 0.00 0.00 28 1014.8
20260503175015 83 270 1.0 4.0 0.00 0.00 0.00 28 1015.0
20260503174015 83 203 1.0 5.0 0.00 0.00 0.00 28 1015.0
20260503173015 83 0.0 0.0 0.00 0.00 0.00 28 1015.0
20260503172016 82 0 3.0 4.0 0.00 0.00 0.00 29 1015.2
20260503171016 82 0.0 2.0 0.00 0.00 0.00 29 1015.2
20260503131017 72 45 10.0 15.0 0.00 0.00 0.00 39 1014.3
20260503081037 73 45 12.0 23.0 0.00 0.00 0.00 35 1015.2
20260503072037 74 45 15.0 22.0 0.00 0.00 0.00 33 1015.4
20260503071017 75 45 12.0 19.0 0.00 0.00 0.00 33 1015.4
20260503055017 76 45 11.0 17.0 0.00 0.00 0.00 31 1014.2
20260503054017 76 45 11.0 20.0 0.00 0.00 0.00 31 1014.2
20260503053017 77 45 12.0 22.0 0.00 0.00 0.00 31 1014.3
20260503052017 77 45 14.0 25.0 0.00 0.00 0.00 31 1014.3
20260503051017 77 45 12.0 19.0 0.00 0.00 0.00 30 1014.2
20260503050017 77 45 13.0 18.0 0.00 0.00 0.00 30 1014.2
20260503045017 77 68 12.0 20.0 0.00 0.00 0.00 30 1014.2
20260503044017 77 45 11.0 18.0 0.00 0.00 0.00 29 1014.0
20260503043017 77 68 12.0 19.0 0.00 0.00 0.00 29 1013.8
20260503042017 77 68 13.0 19.0 0.00 0.00 0.00 29 1013.5
20260503041037 77 68 13.0 22.0 0.00 0.00 0.00 29 1013.3
20260503040017 77 68 11.0 16.0 0.00 0.00 0.00 28 1013.1
20260503035017 78 45 12.0 19.0 0.00 0.00 0.00 28 1012.9
20260503034017 78 45 12.0 19.0 0.00 0.00 0.00 28 1013.0
20260503033018 78 68 11.0 17.0 0.00 0.00 0.00 27 1013.0
20260503032017 79 68 10.0 15.0 0.00 0.00 0.00 27 1012.8
20260503031037 79 68 10.0 15.0 0.00 0.00 0.00 26 1012.8
20260503030017 79 68 10.0 16.0 0.00 0.00 0.00 26 1012.8
20260503025017 80 68 13.0 18.0 0.00 0.00 0.00 26 1012.6
20260503024017 80 68 10.0 16.0 0.00 0.00 0.00 25 1012.5
20260503023017 80 68 11.0 20.0 0.00 0.00 0.00 25 1012.5
20260503022017 81 68 9.0 14.0 0.00 0.00 0.00 24 1012.4
20260503021017 81 68 9.0 15.0 0.00 0.00 0.00 24 1012.4
20260503020016 82 68 6.0 11.0 0.00 0.00 0.00 24 1012.5
20260503015117 82 68 8.0 13.0 0.00 0.00 0.00 23 1012.5
20260503014017 82 45 8.0 13.0 0.00 0.00 0.00 22 1012.5
20260503013017 83 68 5.0 8.0 0.00 0.00 0.00 21 1012.6
20260503012016 83 45 6.0 9.0 0.00 0.00 0.00 21 1012.5
20260503011016 84 68 5.0 8.0 0.00 0.00 0.00 21 1012.5
20260503010016 84 68 6.0 9.0 0.00 0.00 0.00 21 1012.7
20260503005017 84 90 5.0 8.0 0.00 0.00 0.00 21 1012.6
20260503004016 84 68 4.0 8.0 0.00 0.00 0.00 20 1012.5
20260503003017 85 68 8.0 11.0 0.00 0.00 0.00 20 1012.5
20260503002017 86 23 5.0 14.0 0.00 0.00 0.00 19 1012.7
20260503001016 86 68 6.0 10.0 0.00 0.00 0.00 19 1012.6
20260503000016 87 23 5.0 10.0 0.00 0.00 0.00 19 1012.7
20260502235036 87 45 6.0 11.0 0.00 0.00 0.00 19 1013.0
20260502234016 87 23 4.0 7.0 0.00 0.00 0.00 19 1012.9
20260502233017 86 45 5.0 12.0 0.00 0.00 0.00 20 1012.6
20260502232016 86 158 4.0 7.0 0.00 0.00 0.00 18 1013.1
20260502231017 86 315 2.0 5.0 0.00 0.00 0.00 20 1012.9
20260502230016 86 0 4.0 8.0 0.00 0.00 0.00 20 1013.3
20260502225016 87 293 3.0 5.0 0.00 0.00 0.00 17 1013.0
20260502224016 88 315 3.0 6.0 0.00 0.00 0.00 17 1013.2
20260502223036 89 203 2.0 6.0 0.00 0.00 0.00 16 1013.4
20260502222016 88 225 7.0 12.0 0.00 0.00 0.00 17 1013.1
20260502221017 88 270 4.0 11.0 0.00 0.00 0.00 17 1013.1
20260502220016 86 225 2.0 6.0 0.00 0.00 0.00 17 1013.1
20260502215016 85 225 4.0 8.0 0.00 0.00 0.00 18 1013.2
20260502214016 85 203 4.0 9.0 0.00 0.00 0.00 19 1013.2
20260502213017 86 113 6.0 14.0 0.00 0.00 0.00 18 1013.5
20260502212016 86 113 2.0 6.0 0.00 0.00 0.00 18 1013.3
20260502211017 86 113 6.0 11.0 0.00 0.00 0.00 18 1013.5
20260502210016 85 68 6.0 14.0 0.00 0.00 0.00 20 1013.6
20260502205016 86 90 8.0 15.0 0.00 0.00 0.00 20 1014.1
20260502204036 87 158 5.0 9.0 0.00 0.00 0.00 20 1014.3
20260502203036 88 90 10.0 15.0 0.00 0.00 0.00 19 1014.5
20260502202016 88 23 5.0 11.0 0.00 0.00 0.00 19 1014.8
20260502201016 87 315 4.0 9.0 0.00 0.00 0.00 19 1014.8